Retour au catalogue

QIANFAN-11

ActifCommunicationsPO
NORAD 60389·PAYLOAD·🇨🇳 China

Lancé Aug 6, 2024 depuis Taiyuan Satellite Launch Center

Loading…

Prochains Passages (prochaines 24 heures)

TLE

FraisSource: Space-Track

Époque: Sep 14, 2026, 12:52 UTC

1 60389U 24140L   26257.53616987  .00000011  00000-0 -20873-5 0  9992
2 60389  88.9605 270.4733 0016222 117.2953 242.9852 13.51021059104353

Suivez QIANFAN-11 en temps réel avec AllMySat

Download on the App Store